Location: Bronschhofen
(47.4788°N, 9.0353°E)
Time: 19:06:53
(UTC+00:00)

ATLAS 5 CENTAUR R/B - Pass Details

Date: 20 May 2022
Orbit: 343 x 13893 km, 60.8° (Epoch: 05 July)

Event Time Altitude Azimuth Distance (km) Brightness Sun altitude
Rises 00:59:15 0° 317° (NW) 8,107 8.0 -19.0°
Reaches altitude 10° 01:06:42 10° 314° (NW) 5,220 7.0 -18.5°
Maximum altitude 01:16:44 43° 248° (WSW) 1,285 3.3 -17.7°
Enters shadow 01:18:19 32° 202° (SSW) 1,277 3.1 -17.6°
